[[{"header":{"parameterUnit":"m.s-1","parameterCategory":1,"la1":30.2992,"la2":30.254,"lo1":-89.0895,"lo2":-89.0443,"dy":0.0025,"dx":0.0025,"nx":19,"ny":19,"refTime":"2026-04-27T21:00:00:Z","depth":0,"parameterNumber":2,"parameterNumberName":"U-component_of_WINDS"},"data":[0,0,0,0.3043,0.3045,0.3139,0.314,0.3253,0.3254,0,0,0,0,0,0,0,0,0,0,0,0.301,0.3011,0.3043,0.3045,0.3139,0.314,0.3253,0.3254,0,0,0,0,0,0,0,0,0,0,0,0.301,0.3011,0.3012,0.3046,0.3139,0.314,0.3253,0.3185,0,0,0,0,0,0,0,0,0,0,0.3095,0.3059,0.3011,0.3012,0.3046,0.3139,0.314,0.3181,0.3189,0.3208,0,0.3221,0,0.3239,0.3261,0.3262,0,0,0,0.305,0.3053,0.3082,0.3012,0.3047,0.3139,0.3098,0.3186,0.3194,0.3217,0.3223,0.3228,0.3241,0.3262,0.3262,0.3351,0.3351,0,0,0.3045,0.3025,0.3077,0.3088,0.3071,0.3095,0.3101,0.3191,0.3197,0.3224,0.323,0.3243,0.3263,0.3263,0.3351,0.3351,0,0,0,0.3027,0.3021,0.3049,0.3083,0.31,0.3098,0.3104,0.3193,0.3203,0.3232,0.3244,0.3263,0.3264,0.3351,0.3351,0.3341,0,0,0,0.3024,0.3011,0.3046,0.3035,0.3098,0.3147,0.3104,0.3197,0.3208,0.3244,0.3263,0.3265,0.335,0.3351,0.3341,0.334,0,0,0,0.3006,0.3009,0.302,0.3034,0.3073,0.3146,0.3162,0.32,0.3215,0.3262,0.3266,0.335,0.3351,0.3341,0.334,0.3357,0,0,0,0.2982,0.3012,0.302,0.3058,0.3073,0.3139,0.3162,0.3213,0.3251,0.3264,0.335,0.3351,0.3341,0.334,0.3357,0.3368,0.337,0,0,0.3009,0.3014,0.3038,0.3048,0.3108,0.3126,0.3185,0.324,0.3263,0.3321,0.3323,0.3341,0.334,0.3357,0.3392,0.3394,0,0,0,0.304,0.3057,0.3077,0.3112,0.3153,0.3189,0.3236,0.3256,0.3305,0.3288,0.3352,0.3353,0.3363,0.337,0.3371,0.3382,0.3353,0.3353,0.3353,0.3051,0.3077,0.3118,0.3155,0.3189,0.3237,0.3267,0.3302,0.3321,0.3335,0.3353,0.3371,0.3377,0.3379,0.3389,0.3361,0.3361,0.3361,0.3361,0.3092,0.312,0.3142,0.3189,0.3217,0.3259,0.3306,0.3317,0.336,0.336,0.3371,0.3369,0.338,0.3391,0.336,0.336,0.336,0.336,0.336,0.3101,0.3119,0.3142,0.3194,0.3231,0.3269,0.3308,0.3333,0.3357,0.3367,0.3388,0.3388,0.3392,0.3375,0.3375,0.3376,0.3376,0.3376,0.3376,0.3102,0.3128,0.3158,0.3202,0.3227,0.3263,0.3311,0.3337,0.3372,0.3387,0.3387,0.3404,0.3376,0.3368,0.3377,0.3377,0.3376,0.3376,0.3376,0.3134,0.3131,0.3176,0.3201,0.3255,0.329,0.3321,0.3371,0.3396,0.3414,0.3428,0.3403,0.3412,0.3411,0.3404,0.3422,0.3422,0.3422,0.3422,0.3142,0.3148,0.3199,0.3237,0.3277,0.3309,0.336,0.3397,0.3435,0.3452,0.3453,0.3447,0.3445,0.3454,0.3452,0.3447,0.3475,0.3475,0.3475,0.3163,0.3174,0.3212,0.3247,0.3292,0.3329,0.3378,0.3421,0.3464,0.3478,0.3466,0.3464,0.3454,0.345,0.3464,0.346,0.3451,0,0]},{"header":{"parameterUnit":"m.s-1","parameterCategory":1,"la1":30.2992,"la2":30.254,"lo1":-89.0895,"lo2":-89.0443,"dy":0.0025,"dx":0.0025,"nx":19,"ny":19,"refTime":"2026-04-27T21:00:00:Z","depth":0,"parameterNumber":3,"parameterNumberName":"V-component_of_WINDS"},"data":[0,0,0,3.8639,3.8641,3.87,3.87,3.8771,3.8772,0,0,0,0,0,0,0,0,0,0,0,3.8621,3.8621,3.8639,3.8641,3.87,3.87,3.8771,3.8772,0,0,0,0,0,0,0,0,0,0,0,3.862,3.8621,3.8622,3.8641,3.87,3.8701,3.8771,3.8727,0,0,0,0,0,0,0,0,0,0,3.867,3.8653,3.8621,3.8622,3.8641,3.87,3.8701,3.8725,3.873,3.8743,0,3.8756,0,3.8765,3.8776,3.8777,0,0,0,3.8641,3.8649,3.8666,3.8622,3.8642,3.87,3.8673,3.8728,3.8733,3.8749,3.8757,3.8759,3.8766,3.8777,3.8777,3.8856,3.8856,0,0,3.8638,3.863,3.8662,3.8669,3.8662,3.8672,3.8675,3.8731,3.8738,3.8757,3.8761,3.8767,3.8777,3.8778,3.8855,3.8856,0,0,0,3.8628,3.8628,3.8644,3.8666,3.8678,3.8673,3.8678,3.8736,3.8742,3.8762,3.8768,3.8778,3.8779,3.8855,3.8855,3.8868,0,0,0,3.8626,3.8622,3.8642,3.8638,3.8677,3.8708,3.8681,3.8738,3.8744,3.8768,3.8778,3.8779,3.8855,3.8855,3.8867,3.8874,0,0,0,3.8617,3.8621,3.863,3.8638,3.8664,3.8707,3.8716,3.8739,3.8748,3.8777,3.8779,3.8854,3.8855,3.8866,3.8873,3.8894,0,0,0,3.8605,3.8638,3.863,3.867,3.8663,3.8715,3.8716,3.8755,3.878,3.8778,3.8855,3.8855,3.8865,3.8872,3.8893,3.8911,3.8918,0,0,3.8642,3.8642,3.8666,3.8661,3.8713,3.8707,3.8759,3.8789,3.8796,3.8835,3.8837,3.8867,3.8873,3.8894,3.8958,3.8964,0,0,0,3.8676,3.8693,3.8708,3.8734,3.8759,3.8781,3.8803,3.8814,3.8847,3.8816,3.888,3.8884,3.8896,3.8905,3.891,3.8922,3.8859,3.8859,3.8859,3.8718,3.8729,3.877,3.8788,3.8812,3.8836,3.8857,3.8875,3.8877,3.8892,3.8903,3.8942,3.8952,3.8955,3.8967,3.8913,3.8913,3.8913,3.8914,3.8775,3.8801,3.8805,3.8846,3.8857,3.889,3.8914,3.8914,3.8946,3.8933,3.8945,3.893,3.8961,3.8972,3.8915,3.8914,3.8914,3.8914,3.8914,3.8804,3.8819,3.8834,3.8873,3.8902,3.8918,3.8949,3.8957,3.8964,3.8975,3.8989,3.8989,3.899,3.8981,3.8982,3.8982,3.8982,3.8982,3.8982,3.8829,3.8845,3.8872,3.8903,3.8921,3.8946,3.8971,3.8988,3.9009,3.9012,3.9012,3.9012,3.8962,3.895,3.8984,3.8984,3.8983,3.8983,3.8983,3.8884,3.8873,3.8915,3.8933,3.897,3.8999,3.9009,3.9043,3.9059,3.9074,3.9072,3.9034,3.9033,3.903,3.902,3.907,3.907,3.907,3.907,3.8909,3.891,3.8956,3.8985,3.9014,3.9028,3.9073,3.9093,3.9111,3.9121,3.9114,3.9101,3.9097,3.9099,3.9094,3.9085,3.915,3.915,3.915,3.8943,3.8948,3.8986,3.9007,3.9036,3.9061,3.9104,3.9136,3.9154,3.9154,3.9129,3.9125,3.9104,3.9097,3.9096,3.9088,3.9071,0,0]}]]